Content
SEND FEEDBACK

Daily
Averages
Monthly
Summary
United States of America

VENETA, OREGON


Home > North America > United States > Oregon
Elevation: 137 meters     Latitude: 44 03N     Longitude: 123 25W

WEATHER
 
SELECT A DAY
Number of Records: 212,821;   Date Range: 1/1/95 - 9/29/14
 
SHARE

PRINT THIS DATA

[ ← Previous Day ]
WEATHER ALMANAC - 31 JANUARY, 2013
[ Next Day → ]
[ °F ]   °C
Weather ElementAverageHighLow
Temperature7.2 °C12 °C (3:19 pm)2.2 °C (11:54 pm)
Dewpoint5.9 °C7.2 °C (1:54 am)1.7 °C (11:54 pm)
Humidity92 %100 % (12:51 am)67 % (3:19 pm)
Barometer1030.5 hPa1032.2 hPa (12:54 am)1028.1 hPa (6:54 pm)
Wind Speed2.9 km/h11.1 km/h (8:29 am)
Weather ElementAverage
Visibility8.7 km
Wind DirectionENE (77.9 °)

Weather ElementTotal
Precipitation3.3 mm
Heating Degree Days11.2 (Base 18.3)
Averaged from 48 records on 31 January, 2013
WEATHER CONDITIONS BREAKOUT
WIND DIRECTION BREAKOUT
WEATHER BY HOUR - 31 JANUARY, 2013
[ °F ]   °C
Local TimeTemperatureDewpointHumidityBarometerVisibilityWind DirectionWind SpeedGust SpeedPrecipitationEventsConditions
12:51 AM7 °C7 °C100 %1031.8 hPa4.8 kmCalmOvercast
12:54 AM7.2 °C6.7 °C97 %1032.2 hPa4.8 kmCalmOvercast
1:03 AM7 °C7 °C100 %1031.5 hPa3.2 kmESE (110°)5.6 km/hOvercast
1:13 AM7 °C7 °C100 %1031.5 hPa2.9 kmSE (130°)5.6 km/hOvercast
1:32 AM8 °C7 °C93 %1031.5 hPa4 kmCalm0.25 mmOvercast
1:54 AM7.8 °C7.2 °C96 %1031.8 hPa4 kmCalm0.25 mmOvercast
2:05 AM8 °C7 °C93 %1031.5 hPa2.9 kmCalmOvercast
2:26 AM7 °C7 °C100 %1031.5 hPa4 kmCalm0.25 mmOvercast
2:51 AM7 °C6 °C93 %1031.5 hPa4 kmCalm0.25 mmOvercast
2:54 AM7.2 °C6.1 °C93 %1031.8 hPa4 kmCalm0.25 mmOvercast
3:13 AM7 °C7 °C100 %1031.2 hPa4 kmCalm0.25 mmOvercast
3:44 AM7 °C6 °C93 %1030.8 hPa4.8 kmCalm0.25 mmOvercast
3:51 AM7 °C6 °C93 %1030.8 hPa4.8 kmCalm0.25 mmOvercast
3:54 AM7.2 °C6.1 °C93 %1030.8 hPa4 kmCalm0.25 mmOvercast
4:02 AM7 °C6 °C93 %1030.8 hPa2.9 kmCalmOvercast
4:26 AM7 °C6 °C93 %1030.5 hPa4.8 kmCalmOvercast
4:54 AM6.7 °C6.1 °C96 %1030.8 hPa6.4 kmCalmOvercast
5:09 AM7 °C6 °C93 %1030.8 hPa6.4 kmCalmOvercast
5:37 AM7 °C7 °C100 %1030.5 hPa4 kmCalmOvercast
5:54 AM6.7 °C6.7 °C100 %1030.8 hPa3.2 kmCalm0.25 mmOvercast
6:07 AM7 °C6 °C93 %1030.5 hPa4.8 kmCalmOvercast
6:15 AM7 °C6 °C93 %1030.5 hPa4.8 kmSSE (150°)5.6 km/hOvercast
6:34 AM7 °C6 °C93 %1030.5 hPa4.8 kmSouth (190°)5.6 km/hOvercast
6:54 AM6.7 °C6.1 °C96 %1031.2 hPa6.4 kmCalmOvercast
7:08 AM7 °C6 °C93 %1030.5 hPa4 kmSouth (170°)5.6 km/hOvercast
7:26 AM6 °C6 °C100 %1030.5 hPa2.4 kmSouth (170°)5.6 km/h0.25 mmOvercast
7:36 AM6 °C6 °C100 %1030.5 hPa4 kmSSE (160°)5.6 km/h0.25 mmOvercast
7:54 AM6.1 °C5.6 °C97 %1031.2 hPa4.8 kmSSE (160°)5.6 km/h0.25 mmOvercast
8:29 AM6 °C5 °C93 %1030.8 hPa9.7 kmSE (130°)11.1 km/hOvercast
8:54 AM6.1 °C5 °C93 %1031.2 hPa11.3 kmSE (140°)9.3 km/hOvercast
9:54 AM6.7 °C5 °C89 %1031.2 hPa12.9 kmSSE (150°)7.4 km/hOvercast
10:44 AM7 °C6 °C93 %1031.2 hPa11.3 kmCalmOvercast
10:54 AM7.8 °C6.1 °C89 %1031.2 hPa14.5 kmSouth (180°)5.6 km/hMostly Cloudy
11:54 AM9.4 °C6.7 °C83 %1030.5 hPa16.1 kmCalmMostly Cloudy
12:42 PM9 °C7 °C87 %1029.8 hPa16.1 kmCalmMostly Cloudy
12:54 PM10 °C6.7 °C80 %1029.8 hPa16.1 kmSouth (180°)5.6 km/hMostly Cloudy
1:54 PM10 °C6.1 °C77 %1029.1 hPa16.1 kmCalmMostly Cloudy
2:54 PM10.6 °C5.6 °C71 %1029.1 hPa16.1 kmCalmMostly Cloudy
3:19 PM12 °C6 °C67 %1028.8 hPa16.1 kmNNW (330°)5.6 km/hMostly Cloudy
3:54 PM12 °C6 °C67 %1028.8 hPa16.1 kmCalmMostly Cloudy
4:54 PM11 °C6 °C71 %1028.4 hPa16.1 kmCalmMostly Cloudy
5:54 PM7.2 °C5.6 °C90 %1028.4 hPa16.1 kmSSW (200°)5.6 km/hScattered Clouds
6:54 PM5 °C4 °C93 %1028.1 hPa16.1 kmSSE (160°)5.6 km/hPartly Cloudy
7:54 PM4 °C4 °C100 %1028.1 hPa16.1 kmSSE (160°)5.6 km/hPartly Cloudy
8:54 PM5.6 °C5 °C96 %1028.4 hPa16.1 kmSouth (190°)11.1 km/hScattered Clouds
9:54 PM3 °C3 °C100 %1028.1 hPa16.1 kmSSW (200°)7.4 km/hPartly Cloudy
10:54 PM3.9 °C3.3 °C96 %1028.4 hPa16.1 kmWest (260°)7.4 km/hMostly Cloudy
11:54 PM2.2 °C1.7 °C97 %1028.8 hPa12.9 kmSW (220°)5.6 km/hPartly Cloudy
Hourly data recorded from KEUG, located 0 kilometers away from Veneta, Oregon







STORIES FROM OUR PARTNERS